Current Version              Previous Version:    01  02  03  04  05  06  07  08  09  10  11  12  13  14  15  16  17  18  19  20  21  22  23  24  25  26  27  28  29  30  
   31  32  33  34  35  36  37  38  39  40  41  42  43  44  45  46  47  48  49  50  51  52  53  54  55  56  57  58  59  60  

[Printable]
067
ASUS44 KEWX 280802
RWRTX
SOUTH TEXAS REGIONAL WEATHER ROUNDUP
NATIONAL WEATHER SERVICE AUSTIN/SAN ANTONIO TX
200 AM CST FRI NOV 28 2014

NOTE: "FAIR" INDICATED FEW OR NO CLOUDS BELOW 12,000 FEET WITH NO
SIGNIFICANT WEATHER AND/OR OBSTRUCTIONS TO VISIBILITY.

* - THESE STATIONS ARE NOT NWS OR FAA STATIONS...AND ARE NOT SUBJECT
    TO NWS AND FAA QUALITY CONTROL.

TXZ171-172-183>190-280900-
TEXAS HILL COUNTRY AND EDWARDS PLATEAU

CITY           SKY/WX    TMP DP  RH WIND       PRES   REMARKS
JUNCTION       CLEAR     43  32  65 CALM      30.32F
*LLANO         CLEAR     36  32  87 CALM      30.36F
BURNET         CLEAR     42  32  67 CALM      30.35F
*HORSESHOE BAY CLEAR     46  34  62 S6        30.33F WCI  43
*KERRVILLE     CLEAR     36  32  86 CALM      30.35F
*FREDERICKSBRG CLEAR     37  32  81 CALM      30.33F
*ROCKSPRINGS   CLEAR     46  36  66 MISG      30.35F
*BOERNE STAGE  CLEAR     45  34  65 S6        30.36F WCI  41
*CASTROVILLE   CLEAR     40  34  78 MISG      30.38F
HONDO          CLEAR     39  32  76 N6        30.37F WCI  35
*UVALDE        MOCLDY    45  38  77 NE5       30.36F WCI  43
DEL RIO        CLEAR     46  38  73 E5        30.33F WCI  44
LAUGHLIN AFB   CLEAR     44  38  79 E2        30.33F
CARRIZO SPRGS  CLEAR     43  39  87 CALM      30.33F
$$

TXZ173-191>194-202-209-217>225-228-280900-
CENTRAL AND SOUTH CENTRAL TEXAS

CITY           SKY/WX    TMP DP  RH WIND       PRES   REMARKS
GEORGETOWN     CLEAR     39  32  75 SW3       30.35S
AUSTIN/BERGSTM CLEAR     34  33  96 CALM      30.36F
AUSTIN/MABRY   CLEAR     44  35  70 CALM      30.36F
*AUSTIN/EXEC   PTCLDY    45  32  61 SW6       30.36F WCI  41
*LAGO VISTA    CLEAR     49  33  53 S8        30.34F WCI  46
SAN MARCOS     CLEAR     41  34  75 CALM      30.37S
NEW BRAUNFELS    N/A     42  36  79 W6        30.34F WCI  38
RANDOLPH AFB   CLEAR     40  35  85 NW3       30.35F HAZE
PT SAN ANTONIO CLEAR     41  38  87 NW5       30.33F WCI  38
SAN ANTONIO    CLEAR     43  37  79 NW5       30.36F WCI  40
STINSON FIELD  CLEAR     45  39  79 CALM      30.34F
*PLEASANTON    CLEAR     43  40  88 CALM      30.36S
*LA GRANGE     CLEAR     43  39  88 CALM      30.35F
*GIDDINGS      CLEAR     42  36  76 S3        30.40F
*GONZALES      CLEAR     44  40  85 CALM      30.35F
$$

TXZ163>164-176>182-195>201-210>213-226-227-235-280900-
SOUTHEAST TEXAS

CITY           SKY/WX    TMP DP  RH WIND       PRES   REMARKS
COLLEGE STN    CLEAR     46  34  62 SE5       30.37F WCI  44
*BRYAN         CLEAR     41  35  78 SE5       30.38S WCI  38
*CALDWELL      CLEAR     39  36  87 CALM      30.40S
*CROCKETT      CLEAR     39  36  87 CALM      30.42S
*BRENHAM       CLEAR     44  37  78 CALM      30.37F
HUNTSVILLE     CLEAR     44  36  73 CALM      30.37F
CONROE         CLEAR     36  35  96 CALM      30.39F
HOUSTON BUSH   CLEAR     42  39  89 CALM      30.38F
HOUSTON HOBBY  CLEAR     44  42  93 CALM      30.38F
*HOUSTON SW AP CLEAR     40  40 100 CALM      30.39F
PEARLAND       CLEAR     42  39  89 E8        30.40S WCI  37
HOUSTON HOOKS  CLEAR     40  38  93 CALM      30.38F
ELLINGTON FLD  CLEAR     48  37  66 CALM      30.39F
SUGAR LAND     CLEAR     42  39  89 N3        30.37F
*HOUSTON EXEC  MOCLDY    43  37  81 CALM      30.39F
*CLEVELAND MUN CLEAR     36  36 100 CALM      30.40S
*WHARTON       CLEAR     44  40  85 CALM      30.38F
*COLUMBUS      FAIR      41  38  90 CALM      30.36F
$$

TXZ214>216-236>238-280900-
THE UPPER TEXAS COAST

CITY           SKY/WX    TMP DP  RH WIND       PRES   REMARKS
*ORANGE        CLEAR     42  38  87 NE3       30.42S
PORT ARTHUR    CLEAR     42  38  85 E5        30.39F WCI  39
GALVESTON      CLEAR     55  45  68 SE6       30.39F
ANGLETON       CLEAR     39  39 100 CALM      30.38F
*BAY CITY        N/A     43  43  97 CALM      30.37F
PALACIOS       CLEAR     48  46  93 E7        30.37F WCI  45
$$

TXZ229>234-239>247-280900-
TEXAS COASTAL BEND AND RIO GRANDE PLAINS

CITY           SKY/WX    TMP DP  RH WIND       PRES   REMARKS
VICTORIA       CLEAR     48  45  89 E5        30.36F WCI  46
*BEEVILLE      CLEAR     49  49  99 NE5       30.35S WCI  47
ROCKPORT       CLEAR     58  55  90 E6        30.34F
*PORT ARANSAS  CLEAR     64  59  86 SE6       30.33F
*PORT LAVACA   NOT AVBL
*INGLESIDE     CLEAR     56  55  94 CALM      30.34F
CORPUS CHRISTI PTCLDY    57  55  93 E6        30.33F
CORPUS NAS     CLEAR     59  59 100 E6        30.33F
*ROBSTOWN      NOT AVBL
ALICE          CLEAR     51  49  92 NW3       30.34F
KINGSVILLE NAS CLEAR     53  52  96 NW5       30.34F
COTULLA        CLEAR     50  46  86 E3        30.35F
*FAITH RANCH   CLEAR     52  50  93 SE6       30.34F
LAREDO         CLEAR     55  55 100 SE6       30.36F
$$

TXZ248>255-280900-
DEEP SOUTH TEXAS

CITY           SKY/WX    TMP DP  RH WIND       PRES   REMARKS
BROWNSVILLE    FOG       54  52  94 CALM      30.34F VSB 1
PORT ISABEL    FOG       56  54  93 S3        30.34F VSB 1/2
*SOUTH PADRE   CLEAR    N/A N/A N/A CALM      30.34F
HARLINGEN      FOG       52  51  97 CALM      30.34S VSB 1/2
*HEBBRONVILLE  FOG       55  54  96 CALM      30.35F VSB 1/4
MCALLEN        CLEAR     55  54  96 S3        30.34F FOG
*WESLACO       CLEAR     57  54  89 CALM      30.34F
FALFURRIAS     MOCLDY    52  51  94 CALM      30.34F
EDINBURG       CLEAR     55  52  92 CALM      30.34F FOG
*ZAPATA        NOT AVBL
$$

TXZ213>215-236>238-242>244-246-247-251-254-255-280900-
CMAN STATIONS

STATION/POSITION TIME  TEMP    WIND        PRES    WAVE
                       AIR SEA DIR/SP/G            HT/PER
                 (UTC) (F)     (DEG/KT/KT) (MB)    (FT/S)
SABINE PASS      0700   48 59   70/  7/  9 1029.1
SEA RIM ST PARK  0700   47      50/  6/  6 1030.0
NORTH JETTY/GLS  0700   60 60  150/  7/  9   N/A
EAGLE POINT      0700   55 59   CALM  /  1 1028.9
MORGANS POINT    0700   54      80/  2/  2 1028.9
MISSION/ARANSAS  0700   60      80/  6     1029.0
PORT O`CONNOR    0700           90/  7/  8   N/A
PORT ARANSAS     0700   66 62  100/  9/  9 1028.0
MALAQUITE BEACH  0700   66 64  100/  7/  8 1026.8
BAFFIN BAY       0700   64 75  110/  4/  5 1027.2
PORT ISABEL      0700   60 64  210/  1/  2 1027.5
$$

GMZ080-GMZ150>470-280900-
OFFSHORE BUOY REPORTS

STATION/POSITION TIME  TEMP    WIND        PRES    WAVE
                       AIR SEA DIR/SP/G            HT/PER
                 (UTC) (F)     (DEG/KT/KT) (MB)    (FT/S)
20 E GALVESTON   0800   60 61  100/ 10/ 12 1028.5    1/ 4
90 E PT ARANSAS  0800   67 72  120/ 10/ 12 1028.3    3/ 6
35 NE PT MANSFLD 0700   71 73  140/ 10/ 12 1027.3    3/ 6
200 E PT ISABEL  0700   69 74   70/  8/ 12 1028.0    3/ 6
$$